sat.trackr.live / text

‹ back to catalog

STARLINK-37357

NORAD 69517 · 2026-133K

PAYLOAD ACTIVE UNKNOWN

§ Identity

Operator
Country
US
Launch date
2026-06-12
Launch site
AFETR
Launch vehicle
Mass (kg)
RCS (m²)

Purposes: comms

External: N2YO · Heavens-Above · Gunter

§ Orbital elements

Epoch: 2026-09-19T21:59:34.335168Z

Period
93.85 min
Inclination
53.1571°
Eccentricity
0.0001438
Mean motion
15.34404988 rev/d
Perigee alt
461.7 km
Apogee alt
463.7 km
Semi-major
6,840.8 km
B*
4.2716e-4
RAAN
232.5151°
Arg perigee
80.2385°
Mean anomaly
279.8780°
Rev number
1,666

§ Raw data

STARLINK-373571 69517U 26133K   26262.91636962  .00014086  00000+0  42716-3 0  99942 69517  53.1571 232.5151 0001438  80.2385 279.8780 15.34404988 16669

JSON: /api/v1/satellites/69517 · /tle

For live sub-satellite position, see the globe view (requires WebGL).

§ Visibility from observer

Set your observer location to see the next 7 days of passes ≥ 10°. The values pass through the URL so the page stays shareable.

No JS? Fill the form by hand. The geolocation button needs JavaScript.